This demonstration page uses our WeatherBlox Daily Observations layout. Learn more.

40.92945, -100.16068

Hourly Observations for April 30, 2017

Temp ( °F °C ) Dew Point ( °F °C ) Humidity (%) Winds ( mph kmh ) Pressure ( in mb ) Visibility ( mi km ) Precip ( " mm )
12:15 am 00:15 Cloudy with Light Rain 39 4 30 -1.3 69 69 NNE 24 39 30.09 1019 10 16.0934 0 0
12:35 am 00:35 Cloudy 40 4.3 29 -1.5 66 66 NNE 26 43 30.06 1018 10 16.0934 0 0
12:55 am 00:55 Cloudy 40 4.5 29 -1.5 65 65 NE 24 39 30.06 1018 10 16.0934 0 0
1:15 am 01:15 Cloudy 39 4.1 30 -1.2 69 69 NNE 23 37 30.03 1017 10 16.0934 0 0
1:35 am 01:35 Cloudy 39 4 30 -1.1 70 70 NNE 24 39 30.03 1017 10 16.0934 0 0
1:55 am 01:55 Cloudy 39 3.8 31 -0.8 72 72 NNE 22 35 30.03 1017 10 16.0934 0 0
2:15 am 02:15 Cloudy 38 3.5 31 -0.5 75 75 NNE 22 35 30 1016 10 16.0934 0 0
2:35 am 02:35 Cloudy 38 3.2 31 -0.5 77 77 NNE 25 41 29.97 1015 10 16.0934 0 0
2:55 am 02:55 Cloudy with Light Drizzle 38 3.1 32 -0.1 80 80 NNE 25 41 29.97 1015 10 16.0934 0 0
3:15 am 03:15 Cloudy 37 3 32 0 81 81 NE 25 41 29.97 1015 10 16.0934 0 0
3:35 am 03:35 Cloudy 37 3 32 0 81 81 NNE 22 35 29.97 1015 10 16.0934 0 0
3:55 am 03:55 Cloudy 38 3.2 31 -0.5 77 77 NNE 24 39 29.94 1014 10 16.0934 0 0
4:15 am 04:15 Cloudy with Light Rain 38 3.5 31 -0.6 75 75 NE 23 37 29.91 1013 10 16.0934 0 0
4:35 am 04:35 Cloudy with Light Rain 38 3.2 32 -0.2 79 79 NNE 18 30 29.94 1014 10 16.0934 0 0
4:55 am 04:55 Cloudy with Light Rain 37 2.8 32 0 82 82 NE 14 22 29.94 1014 10 16.0934 0 0
5:15 am 05:15 Cloudy with Light Rain 37 2.5 32 0 84 84 NNE 15 24 29.97 1015 10 16.0934 0.01 0.254
5:35 am 05:35 Windy with Snow Likely 35 1.8 32 -0.1 87 87 NNE 21 33 29.97 1015 5 8.0467 0.04 1.016
5:55 am 05:55 Cloudy with Light Snow 34 1 32 -0.1 92 92 NNE 18 30 29.94 1014 1.5 2.41401 0.07 1.778
6:15 am 06:15 Cloudy with Light Snow 34 1 32 0 93 93 N 17 28 29.91 1013 1.75 2.816345 0.02 0.508
6:35 am 06:35 Cloudy with Light Snow 33 0.8 32 0 94 94 N 15 24 29.91 1013 2.5 4.02335 0.03 0.762
6:55 am 06:55 Cloudy with Light Snow 33 0.8 32 0 94 94 NNE 16 26 29.91 1013 2.5 4.02335 0.07 1.778
7:15 am 07:15 Windy with Snow Likely 34 1 32 0 93 93 N 21 33 29.85 1011 2.5 4.02335 0.03 0.762
7:35 am 07:35 Windy with Snow Likely 34 1.1 32 0.1 93 93 N 21 33 29.85 1011 5 8.0467 0.04 1.016
7:55 am 07:55 Windy with Snow Likely 34 1 32 0 93 93 N 23 37 29.83 1010 0.75 1.207005 0.05 1.27
8:15 am 08:15 Windy with Snow Likely 34 1.3 32 0 91 91 N 26 43 29.8 1009 3 4.82802 0.02 0.508
8:35 am 08:35 Windy with Snow Likely 36 2.1 32 -0.2 85 85 NNE 26 43 29.77 1008 5 8.0467 0.02 0.508
8:55 am 08:55 Windy with Snow Likely 37 2.5 31 -0.5 81 81 NNE 31 50 29.77 1008 4 6.43736 0.02 0.508
9:15 am 09:15 Windy with Snow Likely 37 2.6 31 -0.5 80 80 N 30 48 29.77 1008 5 8.0467 0 0
9:35 am 09:35 Windy with Snow Likely 37 2.8 31 -0.3 80 80 N 30 48 29.77 1008 4 6.43736 0 0
9:55 am 09:55 Cloudy with Light Rain 37 3 32 0 81 81 N 28 44 29.77 1008 7 11.26538 0.01 0.254
10:15 am 10:15 Cloudy 37 2.9 32 0 81 81 N 28 44 29.77 1008 10 16.0934 0 0
10:35 am 10:35 Cloudy with Light Rain 37 3 32 0 81 81 NNE 22 35 29.83 1010 10 16.0934 0 0
10:55 am 10:55 Cloudy with Light Rain 36 2.4 32 -0.2 83 83 NNE 24 39 29.83 1010 5 8.0467 0.01 0.254
11:15 am 11:15 Windy with Snow Likely 35 1.5 32 -0.1 89 89 N 24 39 29.8 1009 0.5 0.80467 0.03 0.762
11:35 am 11:35 Windy with Snow Likely 34 1 32 -0.1 92 92 N 22 35 29.83 1010 1.5 2.41401 0.05 1.27
11:55 am 11:55 Cloudy with Light Snow 33 0.8 32 0 94 94 N 16 26 29.83 1010 0.5 0.80467 0.06 1.524
12:15 pm 12:15 Cloudy with Snow 33 0.7 32 0 95 95 N 14 22 29.83 1010 0.5 0.80467 0.04 1.016
12:35 pm 12:35 Cloudy with Light Snow 33 0.7 32 0 95 95 N 13 20 29.83 1010 0.5 0.80467 0.06 1.524
12:55 pm 12:55 Cloudy with Light Snow 33 0.7 32 0 95 95 N 13 20 29.83 1010 1.25 2.011675 0.13 3.302
1:15 pm 13:15 Cloudy with Light Snow 33 0.8 32 0 94 94 N 12 19 29.8 1009 0.75 1.207005 0.11 2.794
1:35 pm 13:35 Cloudy with Light Snow 34 1 32 0 93 93 N 17 28 29.83 1010 1.5 2.41401 0.24 6.096
1:55 pm 13:55 Windy with Snow Likely 34 1 32 0 93 93 N 20 31 29.77 1008 1 1.60934 0.32 8.128
2:15 pm 14:15 Windy with Snow Likely 34 1 32 0 93 93 N 24 39 29.77 1008 1 1.60934 0.05 1.27
2:35 pm 14:35 Cloudy with Snow 34 1 32 0 93 93 N 20 31 29.77 1008 0.5 0.80467 0.08 2.032
2:55 pm 14:55 Windy with Snow Likely 34 1 32 0 93 93 N 24 39 29.77 1008 0.75 1.207005 0.11 2.794
3:15 pm 15:15 Cloudy with Snow 34 1 32 0 93 93 N 30 48 29.77 1008 0.5 0.80467 0.02 0.508
3:35 pm 15:35 Windy with Snow Likely 34 1 32 0 93 93 N 30 48 29.74 1007 0.25 0.402335 0.04 1.016
3:55 pm 15:55 Cloudy with Snow 34 1.1 32 0 92 92 N 31 50 29.74 1007 0.25 0.402335 0.05 1.27
4:15 pm 16:15 Windy with Snow Likely 34 1.1 32 0 92 92 N 29 46 29.74 1007 1.25 2.011675 0.01 0.254
4:35 pm 16:35 Very Windy with Snow Likely 34 1.2 32 0 92 92 N 39 63 29.71 1006 1 1.60934 0.02 0.508
4:55 pm 16:55 Windy with Snow Likely 34 1.1 32 0 92 92 N 30 48 29.74 1007 1.75 2.816345 0.02 0.508
5:15 pm 17:15 Windy with Snow Likely 34 1.1 32 0 92 92 NNW 31 50 29.74 1007 1.75 2.816345 0 0
5:35 pm 17:35 Windy with Snow Likely 34 1.1 32 0 92 92 N 37 59 29.74 1007 1.75 2.816345 0.01 0.254
5:55 pm 17:55 Windy with Snow Likely 34 1 32 0 93 93 NNW 32 52 29.74 1007 0.75 1.207005 0.02 0.508
6:15 pm 18:15 Windy with Snow Likely 34 1 32 0 93 93 NNW 31 50 29.74 1007 1.25 2.011675 0.01 0.254
6:35 pm 18:35 Windy with Snow Likely 34 1.3 32 0.1 92 92 NNW 32 52 29.77 1008 4 6.43736 0.02 0.508
7:15 pm 19:15 Windy with Snow Likely 34 1.2 32 0 92 92 NNW 29 46 29.77 1008 2 3.21868 0 0
7:35 pm 19:35 Windy with Snow Likely 34 1.1 32 0 92 92 NNW 31 50 29.77 1008 1.5 2.41401 0.02 0.508
7:55 pm 19:55 Windy with Snow Likely 34 1.1 32 0 92 92 N 33 54 29.77 1008 1.75 2.816345 0.04 1.016
8:15 pm 20:15 Windy with Snow Likely 34 1.1 32 0 92 92 N 30 48 29.77 1008 1.5 2.41401 0.02 0.508
8:35 pm 20:35 Windy with Snow Likely 34 1.1 32 0 92 92 N 23 37 29.77 1008 2.5 4.02335 0.03 0.762
8:55 pm 20:55 Windy with Snow Likely 34 1.1 32 0 92 92 N 23 37 29.77 1008 4 6.43736 0.05 1.27
9:15 pm 21:15 Windy with Snow Likely 34 1.1 32 0 92 92 N 20 31 29.77 1008 5 8.0467 0.02 0.508
9:35 pm 21:35 Cloudy with Light Rain 35 1.4 32 0.2 92 92 N 20 31 29.77 1008 10 16.0934 0.03 0.762
9:55 pm 21:55 Cloudy with Light Rain 35 1.5 32 0.1 91 91 N 21 33 29.77 1008 10 16.0934 0.05 1.27
10:15 pm 22:15 Cloudy with Light Snow 34 1 32 0 93 93 N 18 30 29.77 1008 4 6.43736 0.02 0.508
10:35 pm 22:35 Cloudy with Light Snow 34 1 32 0 93 93 N 17 28 29.77 1008 5 8.0467 0.04 1.016
10:55 pm 22:55 Cloudy with Light Wintry Mix 34 1 32 0 93 93 N 15 24 29.77 1008 5 8.0467 0.06 1.524
11:15 pm 23:15 Cloudy with Light Rain 34 1 32 0 93 93 N 16 26 29.77 1008 4 6.43736 0.02 0.508
11:35 pm 23:35 Cloudy with Light Snow 33 0.8 32 0 94 94 N 14 22 29.8 1009 2.5 4.02335 0.03 0.762
11:55 pm 23:55 Cloudy with Light Snow 34 1 32 0 93 93 N 15 24 29.77 1008 7 11.26538 0.06 1.524

Powered by AerisWeather